BTK67 WICC-WARR

Flight info

Callsign BTK67
Flight time N/A
Altitude 35000
Route CA T3 BA
Aircraft A320/M-SDE3FGHIRWY/LB1

Departure

Time 2026-04-20 08:32
Airport Husein Sastranegara International Airport (WICC)

Arrival

Time N/A
Airport Juanda International Airport (WARR)
Time Latitude Longitude Altitude Speed Heading
2026-04-20 07:52 -6.90271 107.57768 2411 ft 0 kts 189°
2026-04-20 08:22 -6.90268 107.57769 2413 ft 3 kts 186°
2026-04-20 08:23 -6.90254 107.57766 2419 ft 4 kts 89°
2026-04-20 08:23 -6.90253 107.57744 2418 ft 1 kts 99°
2026-04-20 08:23 -6.90253 107.57740 2418 ft 0 kts 99°
2026-04-20 08:26 -6.90255 107.57754 2417 ft 7 kts 99°
2026-04-20 08:27 -6.90262 107.57796 2415 ft 7 kts 99°
2026-04-20 08:27 -6.90263 107.57809 2417 ft 6 kts 97°
2026-04-20 08:27 -6.90267 107.57838 2422 ft 6 kts 96°
2026-04-20 08:27 -6.90272 107.57878 2411 ft 5 kts 100°
2026-04-20 08:28 -6.90278 107.57913 2412 ft 5 kts 99°
2026-04-20 08:28 -6.90283 107.57943 2418 ft 4 kts 98°
2026-04-20 08:28 -6.90286 107.57967 2414 ft 3 kts 97°
2026-04-20 08:28 -6.90290 107.57993 2416 ft 5 kts 102°
2026-04-20 08:29 -6.90296 107.58022 2419 ft 4 kts 102°
2026-04-20 08:29 -6.90300 107.58041 2417 ft 1 kts 93°
2026-04-20 08:29 -6.90276 107.58061 2418 ft 8 kts 28°
2026-04-20 08:29 -6.90222 107.58101 2420 ft 12 kts 79°
2026-04-20 08:30 -6.90256 107.58174 2425 ft 11 kts 103°
2026-04-20 08:30 -6.90276 107.58247 2429 ft 10 kts 111°
2026-04-20 08:30 -6.90302 107.58315 2427 ft 11 kts 111°
2026-04-20 08:30 -6.90330 107.58394 2423 ft 14 kts 109°
2026-04-20 08:31 -6.90370 107.58500 2422 ft 14 kts 129°
2026-04-20 08:31 -6.90382 107.58549 2415 ft 2 kts 356°
2026-04-20 08:31 -6.90377 107.58539 2414 ft 1 kts 287°
2026-04-20 08:31 -6.90373 107.58522 2417 ft 0 kts 290°
2026-04-20 08:32 -6.90365 107.58500 2414 ft 20 kts 290°
2026-04-20 08:32 -6.90189 107.57989 2425 ft 131 kts 289°
2026-04-20 08:32 -6.89807 107.56880 2740 ft 183 kts 290°
2026-04-20 08:32 -6.89418 107.55688 3947 ft 180 kts 289°
2026-04-20 08:33 -6.89062 107.54436 5096 ft 196 kts 287°
2026-04-20 08:33 -6.88279 107.51604 6221 ft 232 kts 287°
2026-04-20 08:33 -6.87821 107.49939 6799 ft 259 kts 286°
2026-04-20 08:34 -6.87518 107.48069 7426 ft 284 kts 267°
2026-04-20 08:34 -6.88088 107.46134 8329 ft 295 kts 238°
2026-04-20 08:34 -6.89543 107.44675 9356 ft 300 kts 208°
2026-04-20 08:34 -6.91513 107.44117 10323 ft 302 kts 179°
2026-04-20 08:35 -6.93538 107.44615 11266 ft 303 kts 149°
2026-04-20 08:35 -6.95062 107.46061 12224 ft 304 kts 119°
2026-04-20 08:35 -6.95682 107.48077 13178 ft 305 kts 91°
2026-04-20 08:35 -6.95228 107.50155 14068 ft 309 kts 62°
2026-04-20 08:36 -6.93801 107.51741 14858 ft 316 kts 33°
2026-04-20 08:36 -6.91713 107.52444 15648 ft 323 kts
2026-04-20 08:36 -6.89394 107.52341 16018 ft 346 kts 355°
2026-04-20 08:36 -6.86908 107.52342 16215 ft 368 kts 11°
2026-04-20 08:37 -6.84523 107.53373 16616 ft 380 kts 37°
2026-04-20 08:37 -6.82771 107.55382 17239 ft 386 kts 62°
2026-04-20 08:37 -6.81998 107.57941 17892 ft 392 kts 85°
2026-04-20 08:37 -6.82329 107.60660 18496 ft 397 kts 109°
2026-04-20 08:38 -6.83458 107.63216 19089 ft 401 kts 114°
2026-04-20 08:38 -6.84431 107.65853 19661 ft 405 kts 103°
2026-04-20 08:38 -6.84789 107.68690 20228 ft 409 kts 89°
2026-04-20 08:38 -6.84473 107.71537 20798 ft 413 kts 79°
2026-04-20 08:39 -6.83948 107.74402 21372 ft 417 kts 79°
2026-04-20 08:39 -6.83443 107.77288 21926 ft 421 kts 79°
2026-04-20 08:39 -6.82949 107.80174 22470 ft 425 kts 79°
2026-04-20 08:39 -6.82448 107.83131 23010 ft 430 kts 79°
2026-04-20 08:40 -6.81943 107.86117 23535 ft 434 kts 79°
2026-04-20 08:40 -6.81433 107.89119 23976 ft 437 kts 79°
2026-04-20 08:40 -6.80911 107.92161 24438 ft 440 kts 79°
2026-04-20 08:40 -6.80386 107.95173 24894 ft 443 kts 79°
2026-04-20 08:41 -6.79849 107.98249 25356 ft 446 kts 79°
2026-04-20 08:41 -6.79308 108.01349 25790 ft 449 kts 79°
2026-04-20 08:41 -6.78767 108.04453 26229 ft 452 kts 79°
2026-04-20 08:41 -6.78228 108.07536 26664 ft 455 kts 79°
2026-04-20 08:42 -6.77677 108.10691 27099 ft 457 kts 79°
2026-04-20 08:42 -6.77127 108.13859 27540 ft 460 kts 79°
2026-04-20 08:42 -6.76580 108.17017 27964 ft 463 kts 79°
2026-04-20 08:42 -6.76026 108.20220 28384 ft 466 kts 79°
2026-04-20 08:43 -6.75469 108.23445 28768 ft 469 kts 79°
2026-04-20 08:43 -6.74906 108.26689 29156 ft 471 kts 79°
2026-04-20 08:43 -6.74336 108.29958 29539 ft 474 kts 79°
2026-04-20 08:43 -6.73762 108.33241 29910 ft 477 kts 79°
2026-04-20 08:44 -6.73182 108.36548 30254 ft 479 kts 79°
2026-04-20 08:44 -6.72615 108.39807 30737 ft 477 kts 79°
2026-04-20 08:44 -6.72048 108.43090 31240 ft 475 kts 79°
2026-04-20 08:44 -6.71481 108.46364 31749 ft 473 kts 79°
2026-04-20 08:45 -6.70913 108.49622 32262 ft 471 kts 78°
2026-04-20 08:45 -6.70348 108.52870 32799 ft 469 kts 79°
2026-04-20 08:45 -6.70074 108.56101 33317 ft 469 kts 89°
2026-04-20 08:45 -6.70316 108.59378 33850 ft 469 kts 97°
2026-04-20 08:46 -6.70825 108.62618 34329 ft 467 kts 97°
2026-04-20 08:46 -6.71326 108.65850 34695 ft 466 kts 97°
2026-04-20 08:46 -6.71816 108.69048 34808 ft 465 kts 97°
2026-04-20 08:47 -6.72798 108.75468 34838 ft 463 kts 97°
2026-04-20 08:47 -6.73781 108.81885 34834 ft 462 kts 97°
2026-04-20 08:48 -6.74760 108.88249 34833 ft 462 kts 97°
2026-04-20 08:48 -6.75743 108.94653 34832 ft 462 kts 97°
2026-04-20 08:49 -6.76711 109.01029 34830 ft 462 kts 97°
2026-04-20 08:49 -6.77691 109.07440 34829 ft 462 kts 97°
2026-04-20 08:50 -6.78670 109.13816 34825 ft 462 kts 97°
2026-04-20 08:50 -6.79646 109.20219 34825 ft 462 kts 97°
2026-04-20 08:51 -6.80613 109.26594 34824 ft 462 kts 97°
2026-04-20 08:51 -6.81593 109.33006 34820 ft 462 kts 97°
2026-04-20 08:52 -6.82570 109.39375 34821 ft 462 kts 97°
2026-04-20 08:52 -6.83544 109.45775 34822 ft 462 kts 97°
2026-04-20 08:53 -6.84512 109.52191 34820 ft 463 kts 97°
2026-04-20 08:53 -6.85478 109.58571 34820 ft 463 kts 97°
2026-04-20 08:54 -6.86459 109.64985 34822 ft 463 kts 97°
2026-04-20 08:54 -6.87428 109.71361 34823 ft 463 kts 97°
2026-04-20 08:55 -6.88398 109.77786 34820 ft 463 kts 97°
2026-04-20 08:55 -6.89357 109.84157 34821 ft 463 kts 97°
2026-04-20 08:56 -6.90326 109.90580 34821 ft 463 kts 97°
2026-04-20 08:56 -6.91293 109.96964 34824 ft 463 kts 97°
2026-04-20 08:57 -6.92261 110.03388 34824 ft 463 kts 97°
2026-04-20 08:57 -6.93222 110.09770 34818 ft 463 kts 97°
2026-04-20 08:58 -6.94192 110.16189 34813 ft 463 kts 97°
2026-04-20 08:58 -6.95156 110.22568 34807 ft 463 kts 97°
2026-04-20 08:59 -6.96126 110.28996 34800 ft 463 kts 97°
2026-04-20 08:59 -6.97079 110.35387 34801 ft 463 kts 97°
2026-04-20 09:00 -6.97547 110.41830 34802 ft 461 kts 89°
2026-04-20 09:00 -6.97659 110.48255 34800 ft 461 kts 89°
2026-04-20 09:01 -6.97770 110.54740 34801 ft 461 kts 89°
2026-04-20 09:01 -6.97889 110.61171 34796 ft 461 kts 89°
2026-04-20 09:02 -6.98007 110.67635 34790 ft 461 kts 89°
2026-04-20 09:02 -6.98122 110.74086 34783 ft 461 kts 89°
2026-04-20 09:03 -6.98235 110.80516 34784 ft 461 kts 89°
2026-04-20 09:03 -6.98330 110.85888 34787 ft 461 kts 89°
2026-04-20 09:04 -6.98455 110.93411 34786 ft 461 kts 89°
2026-04-20 09:04 -6.98542 110.98789 34783 ft 461 kts 89°
2026-04-20 09:05 -6.98655 111.05247 34787 ft 461 kts 89°
2026-04-20 09:05 -6.98767 111.11672 34784 ft 461 kts 89°
2026-04-20 09:06 -6.98875 111.18135 34786 ft 461 kts 89°
2026-04-20 09:06 -6.98976 111.24590 34790 ft 460 kts 89°
2026-04-20 09:07 -6.99082 111.31013 34788 ft 460 kts 89°
2026-04-20 09:07 -6.99196 111.37470 34791 ft 460 kts 89°
2026-04-20 09:08 -6.99818 111.43849 34792 ft 463 kts 102°
2026-04-20 09:08 -7.01594 111.50099 34792 ft 464 kts 104°
2026-04-20 09:09 -7.03366 111.56361 34791 ft 464 kts 104°
2026-04-20 09:09 -7.05127 111.62581 34672 ft 464 kts 104°
2026-04-20 09:09 -7.06017 111.65719 34435 ft 464 kts 104°
2026-04-20 09:10 -7.06908 111.68859 34201 ft 465 kts 104°
2026-04-20 09:10 -7.07782 111.71957 33980 ft 465 kts 104°
2026-04-20 09:10 -7.08668 111.75101 33752 ft 466 kts 104°
2026-04-20 09:10 -7.09550 111.78235 33491 ft 466 kts 104°
2026-04-20 09:11 -7.10442 111.81381 33229 ft 467 kts 104°
2026-04-20 09:11 -7.11336 111.84531 32985 ft 468 kts 104°
2026-04-20 09:11 -7.12234 111.87698 32729 ft 469 kts 104°
2026-04-20 09:11 -7.13132 111.90868 31771 ft 472 kts 104°
2026-04-20 09:12 -7.14025 111.94031 30696 ft 477 kts 104°
2026-04-20 09:12 -7.15019 111.97212 29906 ft 474 kts 110°
2026-04-20 09:12 -7.16499 112.00168 29023 ft 472 kts 121°
2026-04-20 09:12 -7.18475 112.02792 28247 ft 467 kts 131°
2026-04-20 09:13 -7.20708 112.05152 27453 ft 463 kts 133°
2026-04-20 09:13 -7.22899 112.07454 26680 ft 458 kts 133°
2026-04-20 09:13 -7.25098 112.09770 25908 ft 454 kts 133°
2026-04-20 09:13 -7.27278 112.12074 25149 ft 450 kts 133°
2026-04-20 09:14 -7.29429 112.14355 24411 ft 446 kts 133°
2026-04-20 09:14 -7.31564 112.16617 23708 ft 442 kts 133°
2026-04-20 09:14 -7.33644 112.18815 22979 ft 437 kts 134°
2026-04-20 09:14 -7.35729 112.21015 22322 ft 429 kts 134°
2026-04-20 09:15 -7.37777 112.23175 21705 ft 422 kts 133°
2026-04-20 09:15 -7.39793 112.25302 21091 ft 415 kts 133°
2026-04-20 09:15 -7.41777 112.27398 20490 ft 409 kts 133°
2026-04-20 09:15 -7.43716 112.29446 19869 ft 405 kts 133°
2026-04-20 09:16 -7.45626 112.31529 19237 ft 401 kts 128°
2026-04-20 09:16 -7.47124 112.33880 18605 ft 397 kts 116°
2026-04-20 09:16 -7.48072 112.36491 17927 ft 395 kts 103°
2026-04-20 09:16 -7.48603 112.39168 17258 ft 392 kts 101°
2026-04-20 09:17 -7.49121 112.41847 16636 ft 388 kts 101°
2026-04-20 09:17 -7.49646 112.44515 16001 ft 384 kts 101°
2026-04-20 09:17 -7.50162 112.47120 15383 ft 382 kts 101°
2026-04-20 09:17 -7.50681 112.49741 14829 ft 377 kts 101°
2026-04-20 09:18 -7.51194 112.52331 14242 ft 374 kts 101°
2026-04-20 09:18 -7.51696 112.54888 13818 ft 367 kts 101°
2026-04-20 09:18 -7.52175 112.57325 13704 ft 350 kts 101°
2026-04-20 09:18 -7.52629 112.59636 13570 ft 321 kts 101°
2026-04-20 09:19 -7.53045 112.61756 13417 ft 297 kts 101°
2026-04-20 09:19 -7.53436 112.63756 13009 ft 284 kts 101°
2026-04-20 09:19 -7.53807 112.65664 12810 ft 278 kts 101°
2026-04-20 09:19 -7.54181 112.67588 12821 ft 279 kts 101°
2026-04-20 09:20 -7.54556 112.69512 12820 ft 278 kts 101°
2026-04-20 09:20 -7.54931 112.71432 12819 ft 278 kts 101°
2026-04-20 09:20 -7.55300 112.73328 12816 ft 278 kts 101°
2026-04-20 09:20 -7.55674 112.75246 12818 ft 279 kts 101°
2026-04-20 09:21 -7.56050 112.77165 12817 ft 279 kts 101°
2026-04-20 09:21 -7.56427 112.79086 12817 ft 279 kts 101°
2026-04-20 09:21 -7.56795 112.80984 12815 ft 278 kts 101°
2026-04-20 09:21 -7.57168 112.82910 12714 ft 280 kts 101°
2026-04-20 09:22 -7.57546 112.84846 12406 ft 279 kts 101°
2026-04-20 09:22 -7.57921 112.86757 12110 ft 277 kts 101°
2026-04-20 09:22 -7.58291 112.88628 11846 ft 275 kts 101°
2026-04-20 09:22 -7.58664 112.90518 11578 ft 274 kts 101°
2026-04-20 09:23 -7.59035 112.92403 11308 ft 272 kts 101°
2026-04-20 09:23 -7.59404 112.94276 11041 ft 271 kts 101°
2026-04-20 09:23 -7.59769 112.96141 10770 ft 270 kts 101°
2026-04-20 09:23 -7.60127 112.97971 10511 ft 269 kts 101°
2026-04-20 09:24 -7.60493 112.99832 10243 ft 268 kts 101°
2026-04-20 09:24 -7.60852 113.01673 9969 ft 267 kts 101°
2026-04-20 09:24 -7.61206 113.03487 9702 ft 266 kts 101°
2026-04-20 09:24 -7.61561 113.05317 9521 ft 265 kts 101°
2026-04-20 09:25 -7.61913 113.07141 9307 ft 265 kts 101°
2026-04-20 09:25 -7.62266 113.08961 9046 ft 263 kts 101°
2026-04-20 09:25 -7.62613 113.10752 8773 ft 262 kts 101°
2026-04-20 09:25 -7.62962 113.12554 8504 ft 261 kts 101°
2026-04-20 09:26 -7.63227 113.14367 8237 ft 261 kts 89°
2026-04-20 09:26 -7.62719 113.16095 7981 ft 260 kts 57°
2026-04-20 09:26 -7.61389 113.17307 7688 ft 262 kts 26°
2026-04-20 09:26 -7.59614 113.17703 7404 ft 264 kts
2026-04-20 09:27 -7.57789 113.17929 7124 ft 263 kts 11°
2026-04-20 09:27 -7.56023 113.18319 6836 ft 262 kts 15°
2026-04-20 09:27 -7.54246 113.18767 6555 ft 262 kts 15°
2026-04-20 09:27 -7.52478 113.19211 6274 ft 261 kts 14°
2026-04-20 09:28 -7.50711 113.19639 5976 ft 260 kts 14°
2026-04-20 09:28 -7.48953 113.19907 5691 ft 259 kts 356°
2026-04-20 09:28 -7.47273 113.19326 5411 ft 258 kts 323°
2026-04-20 09:28 -7.46174 113.17931 5143 ft 256 kts 290°
2026-04-20 09:29 -7.45730 113.16183 4879 ft 256 kts 281°
2026-04-20 09:29 -7.45360 113.14427 4621 ft 255 kts 281°
2026-04-20 09:29 -7.44999 113.12697 4347 ft 255 kts 281°
2026-04-20 09:29 -7.44628 113.10940 4075 ft 254 kts 282°
2026-04-20 09:30 -7.44262 113.09219 3909 ft 245 kts 282°
2026-04-20 09:30 -7.43916 113.07598 3812 ft 234 kts 282°
2026-04-20 09:30 -7.43582 113.06029 3711 ft 223 kts 282°
2026-04-20 09:30 -7.43223 113.04539 3617 ft 215 kts 291°
2026-04-20 09:31 -7.42365 113.03352 3523 ft 207 kts 313°
2026-04-20 09:31 -7.41712 113.02139 3440 ft 191 kts 278°
2026-04-20 09:31 -7.41578 113.00896 3332 ft 171 kts 278°
2026-04-20 09:31 -7.41392 112.99743 3241 ft 164 kts 279°
2026-04-20 09:32 -7.41210 112.98608 3084 ft 162 kts 279°
2026-04-20 09:32 -7.41031 112.97486 2912 ft 162 kts 279°
2026-04-20 09:32 -7.40851 112.96374 2746 ft 162 kts 279°
2026-04-20 09:32 -7.40670 112.95257 2579 ft 161 kts 279°
2026-04-20 09:33 -7.40486 112.94141 2386 ft 161 kts 279°
2026-04-20 09:33 -7.40312 112.93035 2221 ft 161 kts 279°
2026-04-20 09:33 -7.40130 112.91927 2102 ft 159 kts 280°
2026-04-20 09:33 -7.39949 112.90817 2010 ft 161 kts 280°
2026-04-20 09:34 -7.39770 112.89700 1845 ft 162 kts 279°
2026-04-20 09:34 -7.39589 112.88582 1659 ft 161 kts 279°
2026-04-20 09:34 -7.39222 112.86361 1246 ft 160 kts 279°
2026-04-20 09:35 -7.39039 112.85245 1037 ft 160 kts 279°
2026-04-20 09:35 -7.38858 112.84130 845 ft 161 kts 279°
2026-04-20 09:35 -7.38680 112.83019 630 ft 160 kts 281°
2026-04-20 09:35 -7.38531 112.81933 449 ft 158 kts 278°
2026-04-20 09:36 -7.38337 112.80842 245 ft 159 kts 281°
2026-04-20 09:36 -7.38160 112.79747 20 ft 156 kts 279°
2026-04-20 09:36 -7.37992 112.78755 232 ft 156 kts 280°
2026-04-20 09:36 -7.37801 112.77611 1132 ft 168 kts 279°
2026-04-20 09:37 -7.37609 112.76430 2123 ft 177 kts 279°
2026-04-20 09:37 -7.37398 112.75128 2574 ft 200 kts 279°
2026-04-20 09:37 -7.37160 112.73652 3065 ft 225 kts 279°
2026-04-20 09:37 -7.36902 112.72044 3751 ft 238 kts 279°
2026-04-20 09:38 -7.36639 112.70422 3949 ft 237 kts 279°
2026-04-20 09:38 -7.36374 112.68786 3999 ft 236 kts 279°
2026-04-20 09:38 -7.36109 112.67152 4005 ft 236 kts 279°
2026-04-20 09:38 -7.35839 112.65519 4007 ft 236 kts 279°
2026-04-20 09:39 -7.35569 112.63890 4009 ft 236 kts 279°
2026-04-20 09:39 -7.35302 112.62261 4008 ft 235 kts 279°
2026-04-20 09:39 -7.35037 112.60627 4008 ft 235 kts 279°
2026-04-20 09:39 -7.34777 112.59014 4009 ft 235 kts 279°
2026-04-20 09:40 -7.34622 112.58052 4008 ft 235 kts 279°